[[{"header":{"parameterUnit":"m.s-1","parameterCategory":2,"la1":30.2991,"la2":30.254,"lo1":-89.0895,"lo2":-89.0444,"dy":0.0017,"dx":0.0017,"nx":28,"ny":28,"refTime":"2025-03-11T09:00:00:Z","depth":"0","parameterNumber":2,"parameterNumberName":"U-component_of_CURRENTS"},"data":[0,0,0,0,0,0,0,0,0,0,0,0,0,0,0,0,0,0,0,0,0,0,0,0,0,0,0,0,0,0,0,0,0,0,0,0,0,0,0,0,0,0,0,0,0,0,0,0,0,0,0,0,0,0,0,0,0,0,0.3352,0.3352,0,0.3342,0.3342,0.3341,0.3318,0.3318,0.3318,0.3318,0.3301,0.3301,0.33,0,0,0,0,0,0,0,0,0,0,0,0,0,0.333,0.333,0.3352,0.3352,0.3353,0.3343,0.3342,0.3341,0.3318,0.3318,0.3318,0.3318,0.3301,0.3301,0.33,0,0,0,0,0,0,0,0,0,0,0,0,0,0.3327,0.333,0.3352,0.3344,0.3343,0.3343,0.3342,0.3341,0.3318,0.3318,0.3318,0.3318,0.3301,0.3301,0.33,0.3296,0,0,0.3298,0.3298,0,0,0,0,0,0,0,0,0.3327,0.3327,0.3344,0.3344,0.3344,0.3336,0.3328,0.3328,0.3318,0.3322,0.3318,0.3318,0.3316,0.3314,0.3304,0.3295,0.3295,0.3298,0.3298,0.3297,0.3297,0,0,0,0,0,0,0,0.3327,0.3327,0.3343,0.3345,0.3345,0.3334,0.3333,0.3328,0.3314,0.3321,0.3321,0.3328,0.3315,0.3305,0.3304,0.3294,0.3298,0.3297,0.3297,0.3297,0.3322,0.3323,0,0,0,0,0,0,0.334,0.3327,0.3343,0.3343,0.3341,0.3335,0.3334,0.3334,0.3315,0.3313,0.3328,0.3328,0.3306,0.3305,0.3303,0.3346,0.3297,0.3297,0.3296,0.3321,0.3322,0.3323,0,0,0,0,0,0,0.334,0.3341,0.3344,0.334,0.334,0.3336,0.3336,0.3334,0.3329,0.3321,0.3319,0.3327,0.3306,0.3304,0.331,0.3344,0.3296,0.3296,0.332,0.3321,0.3323,0.3401,0,0,0,0,0,0,0.3339,0.3341,0.3341,0.334,0.3341,0.3347,0.3337,0.3334,0.3336,0.3334,0.3319,0.3317,0.3306,0.3311,0.3309,0.3342,0.3295,0.3318,0.332,0.3322,0.3397,0.3405,0.3412,0,0,0,0,0,0.3338,0.333,0.3341,0.3343,0.3342,0.3348,0.3347,0.334,0.3336,0.3334,0.3331,0.3318,0.3323,0.3311,0.3309,0.3342,0.3317,0.332,0.3322,0.3394,0.3403,0.3412,0,0,0,0,0,0,0.3297,0.3327,0.3339,0.3335,0.3349,0.3346,0.334,0.3344,0.3338,0.3337,0.3326,0.3324,0.3348,0.3328,0.3316,0.3354,0.332,0.3322,0.3375,0.3384,0.3391,0.3371,0.3295,0,0,0,0,0,0.3298,0.331,0.3333,0.3329,0.3337,0.3343,0.3344,0.3347,0.3347,0.3343,0.334,0.3339,0.3355,0.3355,0.3358,0.337,0.3365,0.339,0.3398,0.3404,0.3386,0.3448,0.346,0.3331,0.3331,0.3331,0,0,0.328,0.3299,0.3304,0.3324,0.3329,0.3336,0.3341,0.3345,0.3355,0.3344,0.3347,0.3365,0.3365,0.339,0.3398,0.3377,0.3435,0.3407,0.3413,0.339,0.3452,0.3465,0.3476,0.3333,0.3332,0.3332,0,0,0.3248,0.327,0.3271,0.3293,0.3319,0.3328,0.3335,0.3348,0.3357,0.3373,0.3381,0.3415,0.3414,0.3435,0.3443,0.3488,0.3478,0.3495,0.3511,0.3574,0.3585,0.3595,0.3592,0.3601,0.3493,0.3493,0.3494,0,0.3224,0.3238,0.3268,0.3279,0.3302,0.3326,0.3336,0.3346,0.3361,0.3395,0.338,0.3442,0.3437,0.3497,0.3505,0.3507,0.3517,0.3482,0.3585,0.3595,0.3604,0.3598,0.3607,0.3498,0.3497,0.3497,0.3496,0,0.3198,0.322,0.322,0.3254,0.3276,0.3291,0.3328,0.3355,0.3379,0.341,0.348,0.349,0.3529,0.3545,0.3528,0.3601,0.3579,0.3597,0.3566,0.3622,0.3611,0.3619,0.3503,0.3502,0.3501,0.35,0,0,0.312,0.3192,0.3193,0.3219,0.3277,0.3285,0.333,0.3391,0.3429,0.3471,0.3535,0.3571,0.3601,0.3609,0.3623,0.3658,0.3719,0.3643,0.3645,0.3643,0.3818,0.3604,0.3591,0.3772,0.3774,0.3776,0.378,0,0.3093,0.3117,0.3168,0.3193,0.3213,0.3287,0.3323,0.3388,0.3447,0.3511,0.358,0.3623,0.3621,0.364,0.3691,0.3724,0.3745,0.3712,0.3758,0.3757,0.3566,0.3596,0.3454,0.343,0.3788,0.3789,0.379,0,0.305,0.3083,0.3109,0.3192,0.3207,0.3223,0.332,0.3359,0.3479,0.3532,0.3627,0.3672,0.3744,0.3719,0.3814,0.38,0.3796,0.3808,0.381,0.3581,0.3558,0.3434,0.343,0.3402,0.3802,0.3801,0.38,0,0.2978,0.3041,0.3066,0.3093,0.318,0.3214,0.3258,0.3368,0.3416,0.3539,0.3584,0.3711,0.3731,0.3814,0.3813,0.3836,0.3882,0.3931,0.3731,0.3715,0.358,0.3546,0.355,0.3971,0.3971,0.3971,0.3971,0,0.2944,0.2957,0.303,0.3045,0.3074,0.3155,0.3205,0.328,0.3389,0.3442,0.3571,0.3611,0.3751,0.3794,0.3834,0.3774,0.3907,0.3711,0.3704,0.3596,0.3565,0.3518,0.3525,0.3971,0.3971,0.3971,0.3971,0,0.2865,0.2919,0.2939,0.302,0.304,0.3054,0.3145,0.3184,0.3291,0.3364,0.3395,0.3536,0.3577,0.3663,0.375,0.3729,0.363,0.3671,0.3481,0.3448,0.3218,0.3233,0.3023,0.2957,0.3486,0.3481,0.3477,0,0.2829,0.283,0.2889,0.2895,0.2928,0.2967,0.2995,0.3115,0.3167,0.3299,0.3323,0.3377,0.3385,0.3412,0.3403,0.3405,0.3399,0.3238,0.324,0.315,0.3169,0.307,0.3028,0.3111,0.3104,0.3099,0.3094,0,0.2752,0.2765,0.2791,0.2801,0.2818,0.284,0.2894,0.2914,0.3048,0.308,0.3108,0.3115,0.3127,0.3053,0.3012,0.3016,0.3089,0.311,0.3122,0.2924,0.272,0.2671,0.3132,0.3042,0.3048,0.3051,0.3054,0.3056,0.2677,0.2667,0.2689,0.2687,0.2701,0.2682,0.2645,0.2705,0.2709,0.2721,0.284,0.278,0.2818,0.2736,0.271,0.26,0.265,0.2577,0.262,0.2539,0.2403,0.2671,0.2499,0.2501,0.2503,0.2504,0.2505,0,0.2566,0.2568,0.2569,0.2548,0.2495,0.2549,0.2548,0.2481,0.2397,0.246,0.2432,0.2402,0.232,0.2368,0.2293,0.219,0.2143,0.2155,0.2092,0.2095,0.2446,0.2359,0.2019,0.2019,0.2019,0.2019,0.202,0.202,0.2508,0.2461,0.2458,0.2334,0.2311,0.2185,0.2137,0.206,0.2063,0.1961,0.1933,0.1984,0.2114,0.211,0.2023,0.1978,0.1929,0.1741,0.182,0.2198,0.2245,0.229,0.2212,0.1847,0.1847,0.1385,0.1382,0.1379]},{"header":{"parameterUnit":"m.s-1","parameterCategory":2,"la1":30.2991,"la2":30.254,"lo1":-89.0895,"lo2":-89.0444,"dy":0.0017,"dx":0.0017,"nx":28,"ny":28,"refTime":"2025-03-11T09:00:00:Z","depth":"0","parameterNumber":3,"parameterNumberName":"V-component_of_CURRENTS"},"data":[0,0,0,0,0,0,0,0,0,0,0,0,0,0,0,0,0,0,0,0,0,0,0,0,0,0,0,0,0,0,0,0,0,0,0,0,0,0,0,0,0,0,0,0,0,0,0,0,0,0,0,0,0,0,0,0,0,0,0.0096,0.0095,0,0.009,0.009,0.009,0.0079,0.0078,0.0078,0.0078,0.008,0.0081,0.0081,0,0,0,0,0,0,0,0,0,0,0,0,0,0.0085,0.0086,0.0096,0.0095,0.0095,0.009,0.009,0.009,0.0079,0.0078,0.0078,0.0078,0.008,0.0081,0.0081,0,0,0,0,0,0,0,0,0,0,0,0,0,0.0086,0.0086,0.0096,0.0089,0.0088,0.009,0.009,0.009,0.0079,0.0078,0.0078,0.0077,0.008,0.0081,0.0081,0.0092,0,0,0.0083,0.0083,0,0,0,0,0,0,0,0,0.0086,0.0087,0.009,0.0089,0.0088,0.0084,0.0087,0.0091,0.0079,0.0083,0.0078,0.0077,0.0082,0.0082,0.0083,0.0093,0.0093,0.0083,0.0083,0.0083,0.0083,0,0,0,0,0,0,0,0.0086,0.0087,0.0094,0.009,0.0089,0.0082,0.0081,0.0087,0.0086,0.0083,0.0082,0.008,0.0082,0.0083,0.0083,0.0093,0.0083,0.0083,0.0083,0.0084,0.0086,0.0086,0,0,0,0,0,0,0.0087,0.0087,0.0094,0.0094,0.0085,0.0082,0.0082,0.0086,0.0085,0.0085,0.008,0.0079,0.0082,0.0083,0.0083,0.0093,0.0083,0.0084,0.0084,0.0086,0.0086,0.0086,0,0,0,0,0,0,0.0087,0.0088,0.0094,0.0089,0.0089,0.0083,0.0088,0.0086,0.0086,0.0083,0.0083,0.0081,0.0082,0.0082,0.0085,0.0094,0.0084,0.0084,0.0086,0.0086,0.0086,0.0116,0,0,0,0,0,0,0.0087,0.0088,0.0094,0.0089,0.009,0.0103,0.0088,0.0086,0.0086,0.0085,0.0084,0.0084,0.0081,0.0085,0.0086,0.0094,0.0085,0.0087,0.0086,0.0086,0.0115,0.0117,0.0118,0,0,0,0,0,0.0086,0.0102,0.0094,0.0095,0.0097,0.0104,0.0104,0.0097,0.0086,0.0094,0.0085,0.0084,0.0082,0.0085,0.0087,0.0095,0.0087,0.0086,0.0086,0.0115,0.0117,0.0118,0,0,0,0,0,0,0.0105,0.0102,0.0093,0.0108,0.0106,0.0102,0.0109,0.0099,0.0098,0.0096,0.0087,0.0087,0.0089,0.0086,0.0089,0.0091,0.0082,0.0082,0.0104,0.0105,0.0107,0.0145,0.0085,0,0,0,0,0,0.011,0.0119,0.0112,0.0124,0.0125,0.0115,0.0116,0.011,0.0107,0.0106,0.0101,0.0093,0.0089,0.0092,0.0088,0.0097,0.0106,0.01,0.0101,0.0103,0.0133,0.0149,0.0156,0.0084,0.0084,0.0084,0,0,0.012,0.012,0.0124,0.0128,0.0127,0.0142,0.0115,0.0122,0.0134,0.0107,0.0121,0.0099,0.009,0.0095,0.0096,0.0095,0.0121,0.0102,0.0103,0.0134,0.015,0.0157,0.0164,0.0084,0.0084,0.0084,0,0,0.0153,0.0145,0.0165,0.0167,0.0166,0.0163,0.0165,0.0158,0.0154,0.0158,0.0136,0.0127,0.012,0.012,0.0117,0.0126,0.0124,0.0109,0.0157,0.0171,0.0178,0.0184,0.0183,0.0189,0.0114,0.0114,0.0114,0,0.0166,0.0191,0.0173,0.0194,0.0205,0.0175,0.0204,0.0197,0.019,0.0201,0.0168,0.0164,0.0141,0.0165,0.0153,0.0135,0.0134,0.0152,0.0176,0.0182,0.0189,0.0186,0.0192,0.0116,0.0116,0.0116,0.0115,0,0.0213,0.0233,0.0246,0.0264,0.0272,0.0291,0.028,0.0283,0.0265,0.0263,0.027,0.0233,0.0237,0.021,0.0181,0.0209,0.019,0.0173,0.0179,0.0198,0.0193,0.0199,0.0118,0.0117,0.0117,0.0117,0,0,0.0253,0.0276,0.0284,0.0309,0.0312,0.0331,0.0348,0.0371,0.0403,0.0368,0.0412,0.0364,0.0338,0.0333,0.0289,0.029,0.0299,0.0247,0.0247,0.0259,0.0322,0.0287,0.029,0.0284,0.0286,0.0287,0.0293,0,0.03,0.0364,0.0356,0.0417,0.0451,0.0433,0.0463,0.0475,0.047,0.0501,0.046,0.0477,0.0386,0.0386,0.0367,0.0326,0.0321,0.0299,0.0291,0.0292,0.027,0.0299,0.0313,0.0319,0.0299,0.03,0.0301,0,0.0352,0.0393,0.0461,0.0514,0.0528,0.0556,0.0611,0.0632,0.0654,0.0652,0.0649,0.0616,0.0602,0.0523,0.0474,0.0462,0.0398,0.0358,0.0357,0.033,0.0271,0.0299,0.0331,0.027,0.031,0.031,0.0309,0,0.0406,0.0467,0.0529,0.0544,0.0595,0.0626,0.0656,0.0687,0.0729,0.0758,0.0792,0.0758,0.0752,0.0681,0.0555,0.0524,0.0508,0.0458,0.0372,0.0368,0.0386,0.038,0.0377,0.0443,0.0443,0.0443,0.0443,0,0.0464,0.0515,0.0563,0.0599,0.0687,0.0697,0.0785,0.0806,0.0861,0.0934,0.0876,0.0916,0.0791,0.0746,0.0625,0.0519,0.0559,0.0404,0.0381,0.0391,0.0386,0.0337,0.0293,0.0444,0.0444,0.0444,0.0444,0,0.0513,0.0538,0.0616,0.0686,0.0711,0.0778,0.0866,0.0934,0.097,0.1062,0.108,0.1052,0.0987,0.0854,0.0746,0.0617,0.0487,0.0471,0.0479,0.0456,0.0306,0.0263,0.0262,0.0237,0.0392,0.0391,0.0391,0,0.0543,0.0588,0.068,0.0733,0.0766,0.0858,0.0926,0.0984,0.1061,0.1143,0.1202,0.1168,0.114,0.0962,0.0758,0.0575,0.0488,0.0457,0.0399,0.0324,0.0259,0.024,0.0218,0.0423,0.0423,0.0422,0.0422,0,0.0605,0.0631,0.0695,0.0805,0.0884,0.0978,0.1079,0.1158,0.1237,0.1304,0.1372,0.1359,0.119,0.101,0.0757,0.0617,0.0431,0.0446,0.0386,0.0309,0.0276,0.0232,0.0375,0.0421,0.0421,0.0421,0.0421,0.0421,0.0645,0.0699,0.0777,0.0881,0.0971,0.1083,0.1167,0.127,0.1384,0.149,0.1483,0.1485,0.1254,0.0907,0.071,0.0407,0.0407,0.0312,0.0272,0.0265,0.0231,0.0358,0.0361,0.0361,0.0361,0.0361,0.0361,0,0.0693,0.0752,0.0849,0.0964,0.106,0.1103,0.1257,0.1336,0.1455,0.1559,0.1597,0.1519,0.1218,0.0919,0.0513,0.0292,0.0217,0.0181,0.0171,0.016,0.0296,0.0286,0.0253,0.0253,0.0253,0.0254,0.0254,0.0254,0.0719,0.0805,0.0852,0.1007,0.109,0.1216,0.1301,0.1412,0.1514,0.1635,0.1677,0.1701,0.1531,0.0779,0.0316,0.0193,0.0072,0.0028,-0.0028,0.0067,0.0076,0.0086,0.0067,-0.001,-0.0011,-0.0123,-0.0124,-0.0125]}],[{"header":{"parameterUnit":"m.s-1","parameterCategory":2,"la1":30.2991,"la2":30.254,"lo1":-89.0895,"lo2":-89.0444,"dy":0.0017,"dx":0.0017,"nx":28,"ny":28,"refTime":"2025-03-11T09:00:00:Z","depth":"2","parameterNumber":2,"parameterNumberName":"U-component_of_CURRENTS"},"data":[0,0,0,0,0,0,0,0,0,0,0,0,0,0,0,0,0,0,0,0,0,0,0,0,0,0,0,0,0,0,0,0,0,0,0,0,0,0,0,0,0,0,0,0,0,0,0,0,0,0,0,0,0,0,0,0,0,0,0.2485,0.2485,0,0.2472,0.2472,0.2472,0.2484,0.2484,0.2484,0.2485,0.2521,0.2521,0.2522,0,0,0,0,0,0,0,0,0,0,0,0,0,0.251,0.251,0.2486,0.2485,0.2485,0.2472,0.2472,0.2472,0.2483,0.2484,0.2485,0.2485,0.2521,0.2521,0.2522,0,0,0,0,0,0,0,0,0,0,0,0,0,0.2499,0.251,0.2486,0.2489,0.2489,0.2472,0.2472,0.2472,0.2483,0.2484,0.2485,0.2485,0.252,0.2521,0.2522,0.2513,0,0,0.2524,0.2525,0,0,0,0,0,0,0,0,0.2499,0.2498,0.2489,0.2489,0.2489,0.248,0.2494,0.2488,0.2483,0.2486,0.2485,0.2486,0.2511,0.2513,0.2508,0.2515,0.2516,0.2525,0.2525,0.2525,0.2526,0,0,0,0,0,0,0,0.25,0.2498,0.248,0.2489,0.2489,0.2488,0.2487,0.2493,0.2496,0.2486,0.2486,0.2484,0.2512,0.2507,0.2509,0.2517,0.2524,0.2525,0.2526,0.2526,0.2596,0.2597,0,0,0,0,0,0,0.2501,0.2499,0.2481,0.248,0.2496,0.2487,0.2486,0.2482,0.2495,0.2497,0.2484,0.2485,0.2506,0.2508,0.2511,0.2582,0.2525,0.2526,0.2527,0.2594,0.2596,0.2598,0,0,0,0,0,0,0.2501,0.2499,0.2481,0.2489,0.2487,0.2486,0.2482,0.2482,0.251,0.2493,0.2496,0.2515,0.2506,0.251,0.2551,0.258,0.2526,0.2527,0.2593,0.2595,0.2597,0.2672,0,0,0,0,0,0,0.2502,0.25,0.2506,0.2489,0.2486,0.2506,0.2481,0.2481,0.2505,0.2508,0.252,0.2522,0.2507,0.255,0.2552,0.258,0.2528,0.2591,0.2594,0.2596,0.2668,0.2677,0.2684,0,0,0,0,0,0.2503,0.2493,0.2506,0.2504,0.2492,0.2507,0.2508,0.2508,0.2507,0.2533,0.254,0.2524,0.2567,0.2553,0.2554,0.2583,0.259,0.2593,0.2596,0.2664,0.2675,0.2684,0,0,0,0,0,0,0.2487,0.2493,0.2507,0.2496,0.2523,0.251,0.2518,0.2529,0.2552,0.2553,0.2546,0.2549,0.2599,0.2581,0.2564,0.261,0.2574,0.2577,0.2625,0.2635,0.2643,0.2653,0.2528,0,0,0,0,0,0.2492,0.2499,0.2514,0.251,0.2526,0.2534,0.2542,0.2549,0.256,0.2571,0.2579,0.2585,0.2605,0.2615,0.2626,0.2651,0.2649,0.2669,0.2677,0.2684,0.2694,0.2744,0.2758,0.2608,0.2608,0.2608,0,0,0.2485,0.2486,0.2492,0.2511,0.2523,0.2545,0.2542,0.2561,0.2579,0.257,0.2601,0.2623,0.2623,0.2655,0.2673,0.2647,0.272,0.2688,0.2694,0.27,0.2749,0.2764,0.2777,0.261,0.261,0.2609,0,0,0.2469,0.2482,0.2493,0.2519,0.2548,0.2559,0.258,0.2598,0.2614,0.2649,0.2652,0.2697,0.2709,0.2723,0.2728,0.2787,0.2771,0.2789,0.2829,0.2879,0.2892,0.2904,0.2898,0.2909,0.2782,0.2782,0.2782,0,0.2469,0.2472,0.2501,0.2518,0.2539,0.2575,0.2602,0.2618,0.2648,0.2682,0.267,0.2744,0.2739,0.2802,0.2813,0.2807,0.2818,0.2793,0.2891,0.2903,0.2913,0.2905,0.2915,0.2786,0.2786,0.2785,0.2785,0,0.2461,0.2478,0.2484,0.2526,0.2563,0.2584,0.2625,0.2665,0.2692,0.2722,0.2807,0.2817,0.2864,0.2869,0.2852,0.2932,0.2909,0.2906,0.2869,0.2933,0.2919,0.2929,0.2792,0.279,0.2789,0.2788,0,0,0.2424,0.2474,0.2478,0.2508,0.257,0.2594,0.2647,0.2719,0.2763,0.2816,0.2882,0.2929,0.2965,0.2974,0.2979,0.3012,0.3074,0.2989,0.299,0.2986,0.3158,0.2975,0.2967,0.3102,0.3104,0.3106,0.3109,0,0.2419,0.2447,0.2481,0.2528,0.2558,0.2621,0.2665,0.2739,0.28,0.287,0.2934,0.2994,0.2995,0.3022,0.3068,0.308,0.3108,0.3071,0.3093,0.3093,0.2926,0.2976,0.2766,0.2737,0.3118,0.312,0.3121,0,0.2402,0.2428,0.247,0.2541,0.2563,0.2598,0.2704,0.2749,0.2867,0.2915,0.3022,0.3071,0.3151,0.3123,0.3208,0.3192,0.3182,0.3182,0.3182,0.2995,0.2929,0.2739,0.274,0.3137,0.3136,0.3135,0.3133,0,0.2363,0.242,0.2455,0.2477,0.2564,0.2604,0.2658,0.2774,0.2824,0.2956,0.3006,0.3135,0.3162,0.3232,0.322,0.3236,0.3274,0.3291,0.3121,0.3107,0.292,0.2883,0.3348,0.3348,0.3348,0.3348,0.3348,0,0.2336,0.2367,0.2436,0.2452,0.2499,0.2581,0.2651,0.2723,0.2835,0.2892,0.3026,0.3067,0.3192,0.3225,0.3245,0.3187,0.3297,0.3132,0.3106,0.2933,0.2899,0.3243,0.323,0.3348,0.3348,0.3348,0.3348,0,0.2289,0.2337,0.2376,0.2455,0.2478,0.2517,0.2617,0.2665,0.278,0.2854,0.2896,0.3022,0.3051,0.3125,0.3183,0.3159,0.3155,0.3098,0.2849,0.2792,0.2957,0.2949,0.2955,0.2949,0.2944,0.294,0.2936,0,0.2267,0.2273,0.2346,0.2364,0.2398,0.2462,0.2496,0.262,0.267,0.2799,0.2815,0.2881,0.2884,0.2892,0.2871,0.2864,0.2978,0.2642,0.2632,0.2948,0.2923,0.2923,0.2922,0.2416,0.2408,0.2402,0.2397,0,0.2212,0.2238,0.227,0.2287,0.2323,0.2358,0.2418,0.244,0.2568,0.2615,0.2634,0.2649,0.2646,0.2528,0.2498,0.2477,0.2639,0.2509,0.2936,0.2525,0.2434,0.241,0.2429,0.2342,0.2347,0.2351,0.2354,0.2356,0.2164,0.216,0.2184,0.2196,0.2234,0.2228,0.2202,0.2258,0.2279,0.2302,0.2391,0.2327,0.2351,0.2183,0.2105,0.2052,0.2248,0.2193,0.2216,0.2245,0.2159,0.2061,0.1881,0.1884,0.1887,0.1889,0.1891,0,0.2073,0.2077,0.2079,0.2081,0.2057,0.2117,0.2119,0.2063,0.2005,0.2059,0.2045,0.1855,0.1762,0.1784,0.1621,0.1608,0.1644,0.1545,0.1606,0.1661,0.1709,0.1601,0.1173,0.1171,0.1169,0.1167,0,0,0.2027,0.1994,0.1981,0.1899,0.1893,0.1811,0.1774,0.171,0.1707,0.162,0.1574,0.1688,0.1733,0.1446,0.1401,0.1262,0.1456,0.1202,0.1779,0.1907,0.1953,0.208,0.1971,0,0,0,0,0]},{"header":{"parameterUnit":"m.s-1","parameterCategory":2,"la1":30.2991,"la2":30.254,"lo1":-89.0895,"lo2":-89.0444,"dy":0.0017,"dx":0.0017,"nx":28,"ny":28,"refTime":"2025-03-11T09:00:00:Z","depth":"2","parameterNumber":3,"parameterNumberName":"V-component_of_CURRENTS"},"data":[0,0,0,0,0,0,0,0,0,0,0,0,0,0,0,0,0,0,0,0,0,0,0,0,0,0,0,0,0,0,0,0,0,0,0,0,0,0,0,0,0,0,0,0,0,0,0,0,0,0,0,0,0,0,0,0,0,0,0.0121,0.0121,0,0.0117,0.0117,0.0117,0.0101,0.0101,0.01,0.01,0.0086,0.0085,0.0085,0,0,0,0,0,0,0,0,0,0,0,0,0,0.0109,0.0109,0.0121,0.0121,0.0121,0.0117,0.0117,0.0117,0.0101,0.0101,0.01,0.01,0.0086,0.0086,0.0085,0,0,0,0,0,0,0,0,0,0,0,0,0,0.0111,0.0109,0.0121,0.0112,0.0112,0.0117,0.0117,0.0117,0.0101,0.0101,0.01,0.01,0.0086,0.0086,0.0085,0.0096,0,0,0.0085,0.0085,0,0,0,0,0,0,0,0,0.011,0.0111,0.0114,0.0113,0.0112,0.0109,0.0107,0.011,0.0102,0.0105,0.01,0.0099,0.0093,0.0092,0.0093,0.0096,0.0095,0.0085,0.0085,0.0085,0.0085,0,0,0,0,0,0,0,0.011,0.0111,0.0119,0.0114,0.0113,0.0107,0.0107,0.0108,0.0102,0.0105,0.0104,0.0103,0.0092,0.0093,0.0092,0.0095,0.0085,0.0085,0.0085,0.0085,0.0086,0.0086,0,0,0,0,0,0,0.0112,0.0111,0.012,0.0119,0.011,0.0108,0.0107,0.0111,0.0102,0.0101,0.0104,0.0103,0.0093,0.0092,0.0092,0.0101,0.0085,0.0085,0.0085,0.0086,0.0086,0.0086,0,0,0,0,0,0,0.0112,0.0113,0.012,0.0115,0.0115,0.0108,0.0112,0.0111,0.0108,0.0102,0.0099,0.0102,0.0093,0.0092,0.0092,0.01,0.0085,0.0085,0.0086,0.0086,0.0086,0.0121,0,0,0,0,0,0,0.0111,0.0113,0.0118,0.0115,0.0115,0.0127,0.0113,0.0111,0.0109,0.0107,0.01,0.0098,0.0092,0.0092,0.0092,0.01,0.0085,0.0086,0.0086,0.0086,0.012,0.0123,0.0125,0,0,0,0,0,0.0111,0.0126,0.0118,0.0119,0.0122,0.0128,0.0128,0.0121,0.0109,0.0115,0.0105,0.0098,0.0092,0.0092,0.0092,0.01,0.0086,0.0086,0.0086,0.0119,0.0122,0.0125,0,0,0,0,0,0,0.0124,0.0125,0.0117,0.0131,0.0129,0.0125,0.0132,0.0122,0.0119,0.0116,0.0103,0.0101,0.0102,0.0095,0.0096,0.0099,0.0086,0.0087,0.0111,0.0114,0.0116,0.0142,0.0085,0,0,0,0,0,0.0128,0.0138,0.0134,0.0144,0.0146,0.0137,0.0138,0.0131,0.0127,0.0125,0.0117,0.0108,0.0104,0.0104,0.0099,0.0106,0.0103,0.0109,0.0111,0.0113,0.0133,0.0136,0.0141,0.0087,0.0087,0.0087,0,0,0.0134,0.0137,0.0142,0.0147,0.0146,0.0161,0.0136,0.0142,0.0152,0.0125,0.0135,0.0117,0.0106,0.0111,0.0111,0.0107,0.0122,0.0114,0.0116,0.0134,0.0137,0.0142,0.0147,0.0087,0.0087,0.0087,0,0,0.016,0.0156,0.0175,0.0179,0.018,0.0177,0.0178,0.0173,0.017,0.0174,0.0154,0.0144,0.0138,0.0135,0.0132,0.0145,0.0132,0.0134,0.0173,0.0175,0.018,0.0185,0.017,0.0173,0.0139,0.0139,0.0139,0,0.0168,0.0192,0.0181,0.0202,0.0214,0.0187,0.0213,0.0207,0.0201,0.0209,0.0182,0.0177,0.0155,0.0174,0.0168,0.0154,0.0146,0.0164,0.018,0.0185,0.0189,0.0173,0.0176,0.0141,0.014,0.014,0.014,0,0.0209,0.0229,0.0242,0.0262,0.027,0.0287,0.028,0.0284,0.0268,0.0264,0.0269,0.0237,0.0237,0.0218,0.0194,0.0212,0.0193,0.0181,0.0177,0.0197,0.0178,0.018,0.0143,0.0142,0.0142,0.0141,0,0,0.0235,0.0266,0.0273,0.0299,0.0306,0.0323,0.0339,0.0357,0.0384,0.0353,0.0386,0.0347,0.0323,0.0317,0.0282,0.0275,0.0272,0.0239,0.0238,0.0232,0.0267,0.024,0.0239,0.0263,0.0264,0.0265,0.0237,0,0.0274,0.0335,0.0334,0.039,0.0424,0.0412,0.0438,0.0447,0.0442,0.0463,0.0425,0.0437,0.0363,0.0363,0.034,0.0297,0.0283,0.028,0.0244,0.0243,0.0223,0.0243,0.0248,0.0223,0.0239,0.0239,0.0239,0,0.0317,0.0358,0.0422,0.0475,0.0489,0.0515,0.0563,0.0582,0.0595,0.0592,0.0584,0.0551,0.053,0.0466,0.0402,0.0403,0.0339,0.0297,0.0295,0.0267,0.0221,0.0209,0.0226,0.0243,0.0243,0.0243,0.0242,0,0.0359,0.042,0.0478,0.0495,0.0546,0.0576,0.0603,0.0628,0.0665,0.0682,0.0708,0.0664,0.0655,0.0577,0.0457,0.0437,0.0388,0.0353,0.027,0.0266,0.0264,0.0259,0.0321,0.0321,0.0321,0.0321,0.0321,0,0.0407,0.0455,0.0507,0.0543,0.0622,0.0637,0.0714,0.0731,0.0777,0.0835,0.078,0.0803,0.0684,0.0626,0.0508,0.0395,0.0424,0.029,0.0267,0.0272,0.0268,0.0284,0.028,0.032,0.032,0.0321,0.0321,0,0.0445,0.0474,0.0548,0.0618,0.0642,0.0704,0.0788,0.0848,0.0877,0.095,0.0963,0.0922,0.0838,0.0708,0.0585,0.0471,0.0364,0.0315,0.0317,0.0295,0.0225,0.0223,0.0231,0.023,0.0229,0.0228,0.0228,0,0.0471,0.0512,0.0602,0.0654,0.0688,0.0776,0.0839,0.0894,0.096,0.1016,0.1059,0.1006,0.096,0.0765,0.0575,0.039,0.0356,0.027,0.0235,0.0243,0.022,0.0219,0.0219,0.0233,0.0233,0.0232,0.0232,0,0.0523,0.0548,0.0611,0.0715,0.0792,0.0882,0.0976,0.1043,0.1111,0.1161,0.1196,0.1165,0.0983,0.0789,0.0545,0.0412,0.0299,0.0256,0.0288,0.0254,0.0243,0.0221,0.0221,0.0228,0.0229,0.0229,0.0229,0.0229,0.0555,0.0605,0.0681,0.0779,0.0868,0.0973,0.1047,0.1138,0.1232,0.1305,0.1279,0.123,0.1028,0.0702,0.0485,0.0264,0.028,0.0188,0.019,0.0193,0.0197,0.0185,0.016,0.016,0.016,0.016,0.0159,0,0.0596,0.0651,0.0741,0.0852,0.0945,0.099,0.1125,0.119,0.1282,0.1346,0.1357,0.1144,0.0936,0.0702,0.0381,0.019,0.0172,0.0111,0.0136,0.0141,0.0146,0.0148,0.0097,0.0096,0.0095,0.0094,0,0,0.0618,0.0699,0.074,0.0887,0.0967,0.1086,0.1159,0.1244,0.1311,0.1351,0.1328,0.1285,0.1007,0.0754,0.0488,0.0298,0.0263,0.0252,0.0324,0.0391,0.0398,0.0212,0.0223,0,0,0,0,0]}],[{"header":{"parameterUnit":"m.s-1","parameterCategory":2,"la1":30.2991,"la2":30.254,"lo1":-89.0895,"lo2":-89.0444,"dy":0.0017,"dx":0.0017,"nx":28,"ny":28,"refTime":"2025-03-11T09:00:00:Z","depth":"4","parameterNumber":2,"parameterNumberName":"U-component_of_CURRENTS"},"data":[0,0,0,0,0,0,0,0,0,0,0,0,0,0,0,0,0,0,0,0,0,0,0,0,0,0,0,0,0,0,0,0,0,0,0,0,0,0,0,0,0,0,0,0,0,0,0,0,0,0,0,0,0,0,0,0,0,0,0.1159,0.116,0,0.1214,0.1215,0.1215,0.127,0.1271,0.1271,0.1272,0.1301,0.1301,0.1302,0,0,0,0,0,0,0,0,0,0,0,0,0,0.112,0.112,0.1159,0.116,0.116,0.1214,0.1215,0.1215,0.127,0.1271,0.1272,0.1272,0.1301,0.1301,0.1302,0,0,0,0,0,0,0,0,0,0,0,0,0,0.1152,0.1121,0.1159,0.1194,0.1198,0.1214,0.1215,0.1216,0.1269,0.1271,0.1272,0.1273,0.1301,0.1301,0.1302,0.1279,0,0,0.1302,0.1302,0,0,0,0,0,0,0,0,0.115,0.1153,0.1188,0.1192,0.1196,0.1237,0.1212,0.1236,0.1269,0.1242,0.1272,0.1273,0.1277,0.1279,0.1286,0.128,0.1282,0.1302,0.1302,0.1302,0.1302,0,0,0,0,0,0,0,0.1147,0.1151,0.118,0.1189,0.1194,0.1214,0.122,0.1217,0.1251,0.1244,0.1248,0.1255,0.1279,0.1286,0.1287,0.1282,0.1302,0.1302,0.1302,0.1302,0.1357,0.1359,0,0,0,0,0,0,0.114,0.1149,0.1178,0.1182,0.1176,0.1214,0.122,0.1222,0.1252,0.1258,0.1254,0.1258,0.1285,0.1287,0.1289,0.1343,0.1302,0.1302,0.1302,0.1356,0.1358,0.1359,0,0,0,0,0,0,0.1138,0.1141,0.1176,0.1167,0.1173,0.1213,0.1215,0.1223,0.1265,0.126,0.1266,0.1293,0.1286,0.1288,0.1319,0.1342,0.1302,0.1302,0.1354,0.1357,0.1358,0.1401,0,0,0,0,0,0,0.1137,0.114,0.1156,0.1167,0.1174,0.1202,0.1214,0.1223,0.1265,0.1271,0.1294,0.1296,0.1288,0.1319,0.1319,0.1341,0.1302,0.1353,0.1355,0.1358,0.1397,0.1404,0.141,0,0,0,0,0,0.1135,0.1143,0.1156,0.1161,0.1187,0.1203,0.1209,0.1241,0.1267,0.1284,0.1308,0.1297,0.1336,0.132,0.1319,0.1342,0.1351,0.1355,0.1358,0.1395,0.1403,0.1409,0,0,0,0,0,0,0.1138,0.115,0.1164,0.1178,0.1199,0.1213,0.1237,0.126,0.1293,0.1311,0.1311,0.1314,0.1345,0.1342,0.1325,0.1368,0.1343,0.1347,0.1372,0.1379,0.1385,0.1397,0.1302,0,0,0,0,0,0.1143,0.1153,0.1169,0.1184,0.1196,0.1225,0.1244,0.1266,0.1289,0.1308,0.1321,0.134,0.1351,0.1367,0.1369,0.1393,0.1402,0.1411,0.1417,0.1422,0.1434,0.1485,0.1496,0.137,0.137,0.137,0,0,0.1147,0.1158,0.1164,0.1186,0.1207,0.1223,0.124,0.1276,0.1298,0.1302,0.1344,0.1356,0.1361,0.1387,0.1402,0.1394,0.1459,0.1426,0.143,0.1439,0.1489,0.1502,0.1513,0.1372,0.1371,0.1371,0,0,0.1152,0.1173,0.1182,0.1202,0.1239,0.1248,0.1266,0.1297,0.1325,0.1365,0.137,0.1405,0.1427,0.1434,0.144,0.1483,0.1483,0.1489,0.1537,0.1586,0.1597,0.1606,0.1615,0.1626,0.15,0.15,0.15,0,0.1161,0.1171,0.119,0.1209,0.123,0.1261,0.1282,0.1306,0.1346,0.137,0.1388,0.1452,0.1448,0.1488,0.1503,0.1496,0.1518,0.1505,0.1594,0.1604,0.1613,0.162,0.1631,0.1502,0.1502,0.1502,0.1502,0,0.1167,0.1188,0.1198,0.1225,0.1252,0.1274,0.1306,0.1346,0.1389,0.1409,0.1477,0.1499,0.1546,0.1545,0.1538,0.1601,0.1592,0.1588,0.1574,0.1629,0.1632,0.1643,0.1506,0.1505,0.1504,0.1504,0,0,0.1153,0.119,0.12,0.1221,0.1265,0.1286,0.1332,0.1371,0.1418,0.1472,0.1538,0.157,0.1609,0.1621,0.1631,0.1671,0.1736,0.1668,0.1669,0.1674,0.1833,0.1685,0.1681,0.1763,0.1765,0.1767,0.1802,0,0.1154,0.118,0.1204,0.1243,0.1261,0.1312,0.1345,0.1397,0.1453,0.1518,0.1572,0.1629,0.163,0.1677,0.1722,0.1731,0.177,0.1725,0.1783,0.1784,0.1643,0.1691,0.1775,0.181,0.1812,0.1814,0.1815,0,0.115,0.1174,0.1204,0.1257,0.1272,0.1305,0.1392,0.1432,0.1517,0.1572,0.1663,0.1701,0.1774,0.1775,0.1854,0.1835,0.1847,0.1851,0.1852,0.1709,0.1655,0.175,0.1834,0.1833,0.1831,0.183,0.1829,0,0.1122,0.1172,0.1195,0.1215,0.1279,0.1325,0.137,0.1454,0.1498,0.1623,0.168,0.1776,0.1841,0.1894,0.1907,0.1902,0.1976,0.1965,0.184,0.1829,0.1933,0.1923,0.203,0.203,0.203,0.203,0.203,0,0.109,0.1119,0.1194,0.121,0.1264,0.1326,0.1397,0.1466,0.1562,0.1613,0.1717,0.178,0.1883,0.1928,0.1939,0.1912,0.201,0.1854,0.1837,0.1946,0.1937,0.1939,0.1928,0.2031,0.2031,0.2031,0.2031,0,0.1045,0.108,0.1127,0.1215,0.1248,0.1299,0.1398,0.1441,0.1552,0.1637,0.1682,0.18,0.1863,0.1917,0.1983,0.1928,0.1924,0.1889,0.1984,0.1971,0.1736,0.1727,0.1761,0.1756,0.1752,0.1749,0.1746,0,0.1011,0.1028,0.1135,0.1162,0.1205,0.1286,0.1326,0.1434,0.1479,0.1628,0.1653,0.1758,0.1823,0.1794,0.1862,0.1865,0.1844,0.1821,0.1795,0.1732,0.1714,0.1711,0.1707,0.1739,0.1738,0.1737,0.1736,0,0.0965,0.1017,0.1058,0.1113,0.1163,0.1216,0.1289,0.1312,0.1435,0.1542,0.1593,0.1625,0.1681,0.1717,0.1723,0.1725,0.1825,0.1778,0.1787,0.1763,0.1707,0.1691,0.1693,0.1722,0.1724,0.1726,0.1726,0,0.0941,0.0957,0.1009,0.1052,0.1105,0.113,0.118,0.1228,0.1282,0.1445,0.1457,0.1569,0.1672,0.1644,0.1653,0.1636,0.1617,0.1559,0.1579,0.1595,0.1521,0.1425,0.1347,0,0,0,0,0,0.0914,0.0913,0.0938,0.0971,0.1018,0.1056,0.114,0.1191,0.1313,0.131,0.1381,0.1428,0.1454,0.1503,0.1453,0.1569,0.1616,0.1502,0.1558,0.1645,0.1661,0.1587,0,0,0,0,0,0,0.0888,0.0907,0.091,0.0896,0.0909,0.0948,0.1005,0.1087,0.1089,0.1222,0.1243,0.1335,0.1378,0.1475,0.1429,0.144,0.1441,0.1565,0.1561,0.1636,0.165,0.1663,0.1593,0,0,0,0,0]},{"header":{"parameterUnit":"m.s-1","parameterCategory":2,"la1":30.2991,"la2":30.254,"lo1":-89.0895,"lo2":-89.0444,"dy":0.0017,"dx":0.0017,"nx":28,"ny":28,"refTime":"2025-03-11T09:00:00:Z","depth":"4","parameterNumber":3,"parameterNumberName":"V-component_of_CURRENTS"},"data":[0,0,0,0,0,0,0,0,0,0,0,0,0,0,0,0,0,0,0,0,0,0,0,0,0,0,0,0,0,0,0,0,0,0,0,0,0,0,0,0,0,0,0,0,0,0,0,0,0,0,0,0,0,0,0,0,0,0,0.0187,0.0187,0,0.0181,0.0181,0.0181,0.0169,0.0169,0.0169,0.0168,0.0154,0.0154,0.0154,0,0,0,0,0,0,0,0,0,0,0,0,0,0.0171,0.0171,0.0187,0.0187,0.0187,0.0181,0.0181,0.0181,0.0169,0.0169,0.0169,0.0168,0.0154,0.0154,0.0154,0,0,0,0,0,0,0,0,0,0,0,0,0,0.0174,0.0171,0.0187,0.0179,0.0179,0.0181,0.0181,0.0181,0.0169,0.0169,0.0168,0.0168,0.0154,0.0154,0.0154,0.0163,0,0,0.0154,0.0154,0,0,0,0,0,0,0,0,0.0173,0.0174,0.0181,0.018,0.0179,0.0175,0.017,0.0174,0.017,0.0174,0.0168,0.0168,0.016,0.0159,0.0161,0.0162,0.0162,0.0154,0.0154,0.0153,0.0153,0,0,0,0,0,0,0,0.0173,0.0174,0.0186,0.0181,0.018,0.017,0.017,0.0171,0.017,0.0174,0.0172,0.017,0.0159,0.0161,0.016,0.0162,0.0154,0.0154,0.0153,0.0153,0.017,0.017,0,0,0,0,0,0,0.0174,0.0175,0.0186,0.0185,0.0174,0.0171,0.0171,0.0177,0.0171,0.0169,0.0171,0.017,0.0161,0.0161,0.016,0.0179,0.0153,0.0153,0.0153,0.0169,0.017,0.017,0,0,0,0,0,0,0.0174,0.0175,0.0186,0.0178,0.0179,0.0172,0.0179,0.0177,0.0179,0.0168,0.0167,0.0173,0.0161,0.016,0.0168,0.0178,0.0153,0.0153,0.0169,0.0169,0.017,0.0213,0,0,0,0,0,0,0.0173,0.0175,0.0181,0.0179,0.0179,0.0193,0.0179,0.0178,0.0178,0.0176,0.017,0.0168,0.0161,0.0169,0.0168,0.0178,0.0153,0.0168,0.0169,0.017,0.0211,0.0215,0.0218,0,0,0,0,0,0.0173,0.0182,0.0181,0.0182,0.0187,0.0194,0.0194,0.0187,0.0178,0.0185,0.0182,0.0168,0.0174,0.017,0.0169,0.0178,0.0167,0.0169,0.017,0.0209,0.0214,0.0218,0,0,0,0,0,0,0.0174,0.0181,0.0181,0.019,0.0194,0.0192,0.0194,0.019,0.0193,0.019,0.018,0.0178,0.019,0.0178,0.0173,0.0185,0.0166,0.0167,0.0196,0.0201,0.0205,0.0201,0.0153,0,0,0,0,0,0.0179,0.019,0.0192,0.0201,0.0203,0.02,0.0201,0.0198,0.0199,0.0199,0.0195,0.019,0.0194,0.0193,0.0194,0.0202,0.0176,0.0205,0.0209,0.0213,0.0209,0.0181,0.0181,0.0174,0.0174,0.0174,0,0,0.018,0.0186,0.0191,0.0202,0.0203,0.0216,0.0199,0.0205,0.0216,0.0197,0.0211,0.0207,0.02,0.0212,0.0215,0.0203,0.0202,0.0214,0.0217,0.0211,0.0182,0.0182,0.0183,0.0175,0.0175,0.0174,0,0,0.0193,0.0196,0.0211,0.0218,0.0224,0.0226,0.0229,0.0231,0.0231,0.0246,0.0235,0.0234,0.0242,0.0236,0.0235,0.0258,0.0226,0.026,0.0274,0.0247,0.0248,0.0247,0.0217,0.0214,0.0258,0.0259,0.0259,0,0.0194,0.0216,0.0215,0.0232,0.024,0.0233,0.0251,0.0255,0.026,0.0262,0.0256,0.0259,0.0252,0.026,0.0269,0.0267,0.0245,0.0259,0.0252,0.0251,0.025,0.0219,0.0215,0.0261,0.026,0.026,0.026,0,0.022,0.0238,0.0246,0.0269,0.0277,0.0292,0.0296,0.0305,0.0304,0.0304,0.0311,0.0301,0.0299,0.0298,0.0293,0.0287,0.0272,0.0263,0.024,0.0253,0.022,0.0215,0.0264,0.0263,0.0262,0.0262,0,0,0.0225,0.0259,0.0264,0.0284,0.0299,0.0312,0.033,0.0345,0.0356,0.0353,0.036,0.0361,0.0344,0.034,0.0327,0.0302,0.0279,0.0282,0.028,0.0251,0.0216,0.0215,0.0209,0.027,0.0269,0.0268,0.0197,0,0.0247,0.0291,0.0299,0.034,0.0362,0.0364,0.0385,0.0394,0.0394,0.0399,0.0378,0.0384,0.0364,0.0365,0.0336,0.0297,0.0267,0.0298,0.0208,0.0205,0.0201,0.0204,0.0266,0.0193,0.0191,0.019,0.019,0,0.0269,0.03,0.0345,0.0384,0.0394,0.0418,0.0445,0.0463,0.0461,0.0459,0.0446,0.0425,0.0399,0.0376,0.0302,0.0324,0.0273,0.0234,0.023,0.0209,0.0194,0.0175,0.018,0.0181,0.0181,0.0182,0.0183,0,0.0279,0.0328,0.0369,0.0384,0.0427,0.0449,0.0473,0.0483,0.0503,0.0496,0.05,0.0457,0.0445,0.0373,0.0295,0.0297,0.0202,0.0194,0.014,0.0139,0.0142,0.0143,0.0131,0.0131,0.0131,0.0132,0.0132,0,0.0299,0.0332,0.0383,0.0409,0.0461,0.0479,0.0525,0.0537,0.0552,0.0576,0.0535,0.0532,0.0444,0.038,0.0298,0.0205,0.0202,0.0139,0.0121,0.0162,0.0166,0.0138,0.014,0.0129,0.0129,0.013,0.013,0,0.0304,0.0335,0.0388,0.0447,0.0469,0.0509,0.0571,0.06,0.0612,0.0637,0.0639,0.0589,0.0511,0.041,0.0291,0.0222,0.0125,0.009,0.0139,0.0126,0.0076,0.0081,0.0021,0.002,0.002,0.0019,0.0019,0,0.0311,0.0339,0.0416,0.0455,0.0488,0.0551,0.0593,0.0629,0.0659,0.0671,0.0681,0.062,0.0573,0.0402,0.0292,0.0131,0.011,0.0052,0.0064,0.0076,0.0065,0.007,0.0076,0.0018,0.0018,0.0018,0.0018,0,0.0326,0.0353,0.0399,0.0478,0.0535,0.0599,0.0662,0.0689,0.0727,0.0734,0.0715,0.0632,0.0542,0.0407,0.0285,0.0169,0.0085,0.0046,0.0047,0.0057,0.0072,0.0062,0.0068,0.0016,0.0016,0.0016,0.0017,0,0.0334,0.0365,0.0425,0.0495,0.0565,0.0631,0.0667,0.0707,0.0738,0.0752,0.0741,0.0647,0.0595,0.0427,0.0311,0.02,0.0171,0.0128,0.0123,0.0124,0.0177,0.0213,0.0182,0,0,0,0,0,0.0343,0.0379,0.044,0.0516,0.0586,0.0632,0.0703,0.0733,0.0767,0.076,0.0755,0.0672,0.0513,0.044,0.033,0.0293,0.0145,0.0157,0.0092,0.0006,0.0008,0.0053,0,0,0,0,0,0,0.0349,0.0402,0.0434,0.052,0.0575,0.0654,0.0704,0.0732,0.0729,0.0744,0.066,0.0632,0.0475,0.0574,0.0322,0.029,0.023,0.0087,0.0084,0.0005,0.0006,0.0008,0.0055,0,0,0,0,0]}]]